When you browse on this site, cookies collect data to enhance your experience and personalize the content and advertising you see.
Visit our Privacy Policy to learn more. By continuing to use the site, you agree to this use of cookies and data.
  • In Lithuania
  • List of Countries
  • For 7 days
  • Water Temperature
  • Satellite Maps
  • Weather Map
  • Weather Widgets
  • user-avatar
    Login

    Hourly Weather Shaki

    Today, 22 May, Wednesday

    Time Temperature Precipitation Wind Pressure Humidity
    00:00 +16°C° 0.1 mm 2 mps 739 mmHg 70%
    01:00 +16°C° 0 mm 2 mps 739 mmHg 69%
    02:00 +15°C° 0 mm 1 mps 738 mmHg 68%
    03:00 +15°C° 0 mm 1 mps 738 mmHg 67%
    04:00 +16°C° 0 mm 1 mps 738 mmHg 64%
    05:00 +18°C° 0 mm 1 mps 738 mmHg 60%
    06:00 +19°C° 0 mm 1 mps 738 mmHg 57%
    07:00 +20°C° 0 mm 1 mps 738 mmHg 53%
    08:00 +20°C° 0 mm 2 mps 737 mmHg 49%
    09:00 +21°C° 0 mm 2 mps 737 mmHg 45%
    10:00 +23°C° 0 mm 2 mps 736 mmHg 43%
    11:00 +24°C° 0 mm 2 mps 736 mmHg 41%
    12:00 +25°C° 0 mm 2 mps 736 mmHg 39%
    13:00 +26°C° 0 mm 2 mps 735 mmHg 39%
    14:00 +26°C° 0 mm 2 mps 735 mmHg 39%
    15:00 +25°C° 0 mm 2 mps 734 mmHg 41%
    16:00 +24°C° 0 mm 2 mps 734 mmHg 42%
    17:00 +24°C° 0 mm 2 mps 734 mmHg 43%
    18:00 +24°C° 0 mm 2 mps 734 mmHg 44%
    19:00 +21°C° 0 mm 2 mps 734 mmHg 44%
    20:00 +20°C° 0 mm 2 mps 735 mmHg 44%
    21:00 +18°C° 0 mm 2 mps 735 mmHg 44%
    22:00 +18°C° 0 mm 3 mps 735 mmHg 44%
    23:00 +18°C° 0 mm 3 mps 734 mmHg 45%

    Tomorrow, 23 May, Thursday

    Time Temperature Precipitation Wind Pressure Humidity
    00:00 +18°C° 0 mm 3 mps 734 mmHg 45%
    01:00 +18°C° 0 mm 3 mps 734 mmHg 45%
    02:00 +18°C° 0 mm 4 mps 734 mmHg 44%
    03:00 +17°C° 0 mm 4 mps 734 mmHg 44%
    04:00 +18°C° 0 mm 3 mps 734 mmHg 44%
    05:00 +18°C° 0 mm 3 mps 734 mmHg 44%
    06:00 +19°C° 0 mm 3 mps 734 mmHg 43%
    07:00 +21°C° 0 mm 3 mps 734 mmHg 37%
    08:00 +23°C° 0 mm 4 mps 734 mmHg 31%
    09:00 +26°C° 0 mm 4 mps 734 mmHg 24%
    10:00 +27°C° 0 mm 4 mps 733 mmHg 24%
    11:00 +28°C° 0 mm 4 mps 733 mmHg 24%
    12:00 +29°C° 0 mm 5 mps 733 mmHg 23%
    13:00 +29°C° 0 mm 4 mps 733 mmHg 24%
    14:00 +29°C° 0 mm 4 mps 732 mmHg 25%
    15:00 +29°C° 0 mm 4 mps 732 mmHg 27%
    16:00 +27°C° 0.1 mm 4 mps 732 mmHg 31%
    17:00 +26°C° 0.1 mm 3 mps 732 mmHg 35%
    18:00 +25°C° 0.1 mm 3 mps 732 mmHg 38%
    19:00 +24°C° 0 mm 2 mps 733 mmHg 40%
    20:00 +21°C° 0 mm 2 mps 733 mmHg 41%
    21:00 +20°C° 0 mm 2 mps 733 mmHg 42%
    22:00 +19°C° 0 mm 2 mps 733 mmHg 42%
    23:00 +19°C° 0 mm 2 mps 733 mmHg 42%

    Day after tomorrow, 24 May, Friday

    Time Temperature Precipitation Wind Pressure Humidity
    00:00 +19°C° 0 mm 2 mps 734 mmHg 42%
    01:00 +19°C° 0 mm 2 mps 734 mmHg 42%
    02:00 +19°C° 0 mm 2 mps 734 mmHg 42%
    03:00 +18°C° 0 mm 2 mps 734 mmHg 42%
    04:00 +19°C° 0 mm 2 mps 734 mmHg 42%
    05:00 +20°C° 0 mm 1 mps 734 mmHg 41%
    06:00 +21°C° 0 mm 1 mps 734 mmHg 40%
    07:00 +23°C° 0 mm 2 mps 734 mmHg 37%
    08:00 +24°C° 0 mm 3 mps 734 mmHg 34%
    09:00 +26°C° 0 mm 3 mps 734 mmHg 31%
    10:00 +27°C° 0 mm 3 mps 734 mmHg 31%
    11:00 +28°C° 0 mm 3 mps 734 mmHg 30%
    12:00 +29°C° 0 mm 3 mps 734 mmHg 30%
    13:00 +29°C° 0 mm 3 mps 734 mmHg 30%
    14:00 +29°C° 0 mm 3 mps 734 mmHg 29%
    15:00 +30°C° 0 mm 3 mps 733 mmHg 29%
    16:00 +29°C° 0 mm 2 mps 733 mmHg 32%
    17:00 +28°C° 0 mm 2 mps 733 mmHg 35%
    18:00 +27°C° 0 mm 1 mps 733 mmHg 37%
    19:00 +25°C° 0 mm 1 mps 734 mmHg 40%
    20:00 +24°C° 0 mm 2 mps 735 mmHg 43%
    21:00 +21°C° 0 mm 2 mps 736 mmHg 46%
    22:00 +20°C° 0 mm 2 mps 736 mmHg 50%
    23:00 +20°C° 0 mm 2 mps 735 mmHg 53%

    25 May, Saturday

    Time Temperature Precipitation Wind Pressure Humidity
    00:00 +19°C° 0 mm 2 mps 735 mmHg 56%
    01:00 +19°C° 0 mm 2 mps 735 mmHg 55%
    02:00 +19°C° 0 mm 2 mps 735 mmHg 55%
    03:00 +20°C° 0 mm 1 mps 735 mmHg 54%
    04:00 +21°C° 0 mm 1 mps 735 mmHg 52%
    05:00 +22°C° 0 mm 1 mps 735 mmHg 51%
    06:00 +23°C° 0 mm 1 mps 735 mmHg 49%
    07:00 +24°C° 0 mm 2 mps 735 mmHg 44%
    08:00 +26°C° 0 mm 2 mps 734 mmHg 40%
    09:00 +28°C° 0 mm 3 mps 734 mmHg 35%
    10:00 +30°C° 0 mm 3 mps 734 mmHg 32%
    11:00 +31°C° 0 mm 3 mps 733 mmHg 29%
    12:00 +32°C° 0 mm 2 mps 733 mmHg 26%
    13:00 +34°C° 0 mm 2 mps 733 mmHg 25%
    14:00 +34°C° 0 mm 2 mps 732 mmHg 24%
    15:00 +35°C° 0 mm 2 mps 732 mmHg 23%
    16:00 +34°C° 0.2 mm 2 mps 732 mmHg 28%
    17:00 +31°C° 0.2 mm 2 mps 731 mmHg 32%
    18:00 +30°C° 0.2 mm 2 mps 731 mmHg 37%
    19:00 +28°C° 0.2 mm 2 mps 732 mmHg 40%
    20:00 +26°C° 0.2 mm 2 mps 732 mmHg 44%
    21:00 +25°C° 0.2 mm 2 mps 732 mmHg 48%
    22:00 +25°C° 0.1 mm 2 mps 732 mmHg 46%
    23:00 +25°C° 0.1 mm 2 mps 732 mmHg 44%

    26 May, Sunday

    Time Temperature Precipitation Wind Pressure Humidity
    00:00 +25°C° 0.1 mm 2 mps 732 mmHg 42%
    01:00 +24°C° 0 mm 2 mps 732 mmHg 41%
    02:00 +24°C° 0 mm 2 mps 732 mmHg 41%
    03:00 +23°C° 0 mm 2 mps 732 mmHg 41%
    04:00 +24°C° 0 mm 3 mps 732 mmHg 41%
    05:00 +25°C° 0 mm 3 mps 732 mmHg 41%
    06:00 +25°C° 0 mm 3 mps 733 mmHg 41%
    07:00 +27°C° 0.1 mm 3 mps 733 mmHg 37%
    08:00 +30°C° 0.1 mm 3 mps 733 mmHg 32%
    09:00 +33°C° 0.1 mm 4 mps 733 mmHg 27%
    10:00 +33°C° 0.1 mm 3 mps 733 mmHg 26%
    11:00 +34°C° 0.1 mm 3 mps 733 mmHg 26%
    12:00 +34°C° 0.1 mm 3 mps 732 mmHg 25%
    13:00 +34°C° 0.4 mm 3 mps 732 mmHg 27%
    14:00 +34°C° 0.4 mm 3 mps 732 mmHg 29%
    15:00 +32°C° 0.4 mm 2 mps 732 mmHg 30%
    16:00 +31°C° 0.7 mm 2 mps 732 mmHg 38%
    17:00 +29°C° 0.7 mm 1 mps 732 mmHg 45%
    18:00 +28°C° 0.7 mm 1 mps 733 mmHg 52%
    19:00 +26°C° 0.3 mm 1 mps 733 mmHg 53%
    20:00 +25°C° 0.3 mm 1 mps 734 mmHg 54%
    21:00 +24°C° 0.3 mm 1 mps 734 mmHg 56%
    22:00 +23°C° 0.2 mm 1 mps 734 mmHg 55%
    23:00 +21°C° 0.2 mm 2 mps 734 mmHg 55%

    27 May, Monday

    Time Temperature Precipitation Wind Pressure Humidity
    00:00 +21°C° 0.2 mm 2 mps 734 mmHg 55%
    01:00 +20°C° 0 mm 2 mps 734 mmHg 52%
    02:00 +20°C° 0 mm 3 mps 735 mmHg 49%
    03:00 +20°C° 0 mm 3 mps 735 mmHg 46%
    04:00 +21°C° 0 mm 3 mps 735 mmHg 44%
    05:00 +22°C° 0 mm 3 mps 735 mmHg 43%
    06:00 +22°C° 0 mm 3 mps 736 mmHg 41%
    07:00 +25°C° 0 mm 3 mps 736 mmHg 37%
    08:00 +27°C° 0 mm 4 mps 736 mmHg 33%
    09:00 +29°C° 0 mm 5 mps 736 mmHg 28%
    10:00 +30°C° 0 mm 4 mps 736 mmHg 25%
    11:00 +32°C° 0 mm 4 mps 736 mmHg 22%
    12:00 +33°C° 0 mm 4 mps 736 mmHg 19%
    13:00 +33°C° 0 mm 4 mps 736 mmHg 18%
    14:00 +33°C° 0 mm 3 mps 736 mmHg 18%
    15:00 +33°C° 0 mm 3 mps 736 mmHg 18%
    16:00 +31°C° 0 mm 2 mps 736 mmHg 21%
    17:00 +30°C° 0 mm 2 mps 737 mmHg 23%
    18:00 +29°C° 0 mm 1 mps 737 mmHg 26%
    19:00 +27°C° 0 mm 2 mps 737 mmHg 24%
    20:00 +25°C° 0 mm 2 mps 738 mmHg 23%
    21:00 +22°C° 0 mm 3 mps 739 mmHg 21%
    22:00 +21°C° 0 mm 3 mps 739 mmHg 27%
    23:00 +21°C° 0 mm 2 mps 739 mmHg 32%
    Show more